Location: Calvera
(42.3882°N, 0.6137°E)
Time: 19:18:07
(UTC+00:00)

Meteor PRIRODA - Pass Details

Date: 28 October 2020
Orbit: 491 x 509 km, 97.6° (Epoch: 22 November)

Event Time Altitude Azimuth Distance (km) Brightness Sun altitude
Rises 05:36:32 0° 6° (N) 2,585 7.2 -9.8°
Reaches altitude 10° 05:38:39 10° 1° (N) 1,700 6.2 -9.4°
Maximum altitude 05:42:11 49° 287° (WNW) 652 3.8 -8.8°
Drops below altitude 10° 05:45:43 10° 211° (SSW) 1,696 6.1 -8.1°
Sets 05:47:50 0° 206° (SSW) 2,578 7.1 -7.7°
